Flag for USA

Past Weather in 27°56'57"N, 82°27'22"W, USA — Yesterday and Last 2 Weeks

Now
90 °F

Scattered clouds.


Feels Like: 108 °F
Forecast: 90 / 80 °F
Wind: 12 mph from Northwest

Location: Tampa, Peter O Knight Airport

Current Time: Jul 10, 2020 at 1:19:03 pm

Latest Report: Jul 10, 2020 at 12:55 pm


Visibility: 10 mi

Pressure: 30.00 "Hg

Humidity: 75%

Dew Point: 81 °F

Location of 27°56'57"N, 82°27'22"WLocation

Past Weather in 27°56'57"N, 82°27'22"W — Graph

°F

27°56'57"N, 82°27'22"W Temperature Yesterday

Maximum temperature yesterday: 91 °F (at 1:15 pm)
Minimum temperature yesterday: 82 °F (at 1:15 am)
Average temperature yesterday: 87 °F

High & Low Weather Summary for the Past Weeks

 TemperatureHumidityPressure
High99 °F (Jun 26, 3:55 pm)100% (Jun 27, 6:15 am)30.21 "Hg (Jun 27, 6:15 am)
Low75 °F (Jul 6, 10:15 pm)47% (Jun 27, 3:15 pm)29.90 "Hg (Jul 3, 5:15 pm)
Average86 °F80%30.01 "Hg
* Reported Jun 25 11:15 am — Jul 10 11:55 am, 27°56'57"N, 82°27'22"W. Weather by CustomWeather, © 2020

Note: Actual official high and low records may vary slightly from our data, if they occured in-between our weather recording intervals... More about our weather records

27°56'57"N, 82°27'22"W Weather History for the Previous 24 Hours

Scroll right to see more
 ConditionsComfort  
Time TempWeatherWind HumidityBarometerVisibility
11:55 am
Fri, Jul 10
90 °FBroken clouds.13 mph79%29.98 "Hg10 mi
11:35 am86 °FMore clouds than sun.7 mph84%29.99 "Hg10 mi
11:15 am86 °FCloudy.7 mph84%30.00 "Hg10 mi
10:55 am86 °FMostly cloudy.8 mph84%30.00 "Hg10 mi
10:35 am88 °FCloudy.8 mph84%29.99 "Hg10 mi
10:15 am88 °FBroken clouds.6 mph79%30.00 "Hg10 mi
9:55 am84 °FMostly cloudy.7 mph89%30.00 "Hg7 mi
9:35 am82 °FMostly cloudy.5 mph100%30.00 "Hg7 mi
9:15 am86 °FMostly cloudy.8 mph84%30.00 "Hg10 mi
7:55 am86 °FMore clouds than sun.9 mph84%29.98 "Hg10 mi
7:35 am84 °FMore clouds than sun.3 mph89%29.97 "Hg10 mi
7:15 am82 °FMostly cloudy.9 mph94%29.97 "Hg10 mi
6:55 am82 °FMore clouds than sun.8 mph94%29.96 "Hg10 mi
6:35 am82 °FPartly cloudy.6 mph89%29.96 "Hg10 mi
6:15 am82 °FMostly cloudy.3 mph94%29.96 "Hg10 mi
5:55 am82 °FMostly cloudy.No wind94%29.95 "Hg10 mi
5:35 am82 °FLight rain. Mostly cloudy.5 mph94%29.95 "Hg7 mi
5:15 am82 °FMostly cloudy.6 mph94%29.95 "Hg10 mi
4:55 am82 °FMostly cloudy.3 mph94%29.95 "Hg10 mi
4:35 am82 °FOvercast.7 mph94%29.95 "Hg10 mi
4:15 am84 °FOvercast.7 mph89%29.95 "Hg10 mi
3:35 am84 °FMostly cloudy.6 mph89%29.95 "Hg10 mi
3:15 am84 °FMostly cloudy.6 mph89%29.95 "Hg10 mi
2:55 am84 °FOvercast.8 mph89%29.95 "Hg10 mi
2:35 am84 °FMostly cloudy.7 mph89%29.95 "Hg10 mi
2:15 am84 °FOvercast.6 mph89%29.96 "Hg10 mi
1:55 am84 °FMostly cloudy.7 mph89%29.96 "Hg10 mi
1:35 am84 °FMostly cloudy.7 mph89%29.97 "Hg10 mi
1:15 am84 °FMostly cloudy.8 mph89%29.97 "Hg10 mi
12:55 am84 °FMostly cloudy.8 mph89%29.97 "Hg10 mi
12:35 am84 °FMostly cloudy.8 mph89%29.97 "Hg10 mi
12:15 am84 °FMostly cloudy.7 mph89%29.97 "Hg10 mi
11:55 pm
Thu, Jul 9
84 °FMostly cloudy.7 mph89%29.97 "Hg10 mi
11:35 pm86 °FMostly cloudy.7 mph84%29.96 "Hg10 mi
11:15 pm86 °FMostly cloudy.6 mph84%29.96 "Hg10 mi
10:55 pm86 °FOvercast.6 mph84%29.96 "Hg10 mi
10:35 pm86 °FMostly cloudy.8 mph84%29.96 "Hg10 mi
10:15 pm86 °FMostly cloudy.8 mph84%29.95 "Hg10 mi
9:35 pm86 °FOvercast.8 mph84%29.93 "Hg10 mi
9:15 pm86 °FOvercast.5 mph84%29.93 "Hg10 mi
8:55 pm86 °FMostly cloudy.8 mph84%29.93 "Hg10 mi
8:35 pm86 °FMostly cloudy.7 mph84%29.93 "Hg10 mi
8:15 pm86 °FOvercast.5 mph79%29.93 "Hg10 mi
7:55 pm86 °FMore clouds than sun.6 mph79%29.93 "Hg10 mi
7:35 pm88 °FOvercast.6 mph75%29.93 "Hg10 mi
7:15 pm88 °FOvercast.8 mph75%29.93 "Hg10 mi
6:55 pm90 °FOvercast.7 mph71%29.92 "Hg10 mi
6:35 pm90 °FOvercast.7 mph71%29.92 "Hg10 mi
6:15 pm90 °FMore clouds than sun.12 mph71%29.92 "Hg10 mi
5:55 pm91 °FMore clouds than sun.7 mph67%29.92 "Hg10 mi
5:35 pm91 °FMore clouds than sun.7 mph67%29.92 "Hg10 mi
5:15 pm91 °FMostly cloudy.9 mph67%29.93 "Hg10 mi
4:35 pm91 °FMostly cloudy.9 mph67%29.92 "Hg10 mi
4:15 pm91 °FBroken clouds.7 mph67%29.93 "Hg10 mi
3:35 pm91 °FMostly cloudy.8 mph71%29.93 "Hg10 mi
3:15 pm91 °FMostly cloudy.9 mph67%29.94 "Hg10 mi
2:55 pm91 °FMore clouds than sun.9 mph71%29.95 "Hg10 mi
2:35 pm91 °FPartly sunny.7 mph67%29.95 "Hg10 mi
2:15 pm91 °FBroken clouds.9 mph71%29.96 "Hg10 mi
1:55 pm91 °FScattered clouds.10 mph71%29.96 "Hg10 mi
1:35 pm91 °FScattered clouds.10 mph67%29.96 "Hg10 mi
1:15 pm91 °FScattered clouds.13 mph67%29.96 "Hg10 mi
Weather by CustomWeather, © 2020

See weather overview